Вернуться в каталог

SL-12 DEB

LostHEO
NORAD 29405·DEBRIS·🇷🇺 Russia

Запущен May 31, 1989 с Baikonur Cosmodrome

Loading…

Ближайшие Пролёты (ближайшие 24 часа)

TLE

УстаревшееSource: Space-Track

Эпоха: Sep 28, 2006, 23:20 UTC

1 29405U 89039BH  06271.97248304  .00002431  00000-0  68883+0 0  9994
2 29405  65.6709 256.7968 5015472  66.9053 337.3627  4.18218834  2148

Отслеживайте SL-12 DEB в реальном времени с AllMySat

Download on the App Store